This is the latest recevied weather packets stored in our database for station/object N6RDS-8. If no packets are shown the sender has not sent any weather packets the latest 10 day(s).
| Time | Temp. | Humidity | Pressure | Rain* | Wind** | Luminosity | Snow |
|---|---|---|---|---|---|---|---|
| 1777892240 | 15.56° C | 49% | 1017.8 hPa | 0 mm | - | 0 W/m² | - |
| 1777891937 | 15.56° C | 48% | 1017.6 hPa | 0 mm | - | 0 W/m² | - |
| 1777891635 | 16.67° C | 48% | 1017.5 hPa | 0 mm | - | 0 W/m² | - |
| 1777891331 | 16.67° C | 44% | 1017.5 hPa | 0 mm | - | 0 W/m² | - |
| 1777891027 | 16.11° C | 46% | 1017.6 hPa | 0 mm | - | 0 W/m² | - |
| 1777890726 | 15.56° C | 46% | 1017.7 hPa | 0 mm | - | 0 W/m² | - |
| 1777890422 | 15.56° C | 48% | 1017.7 hPa | 0 mm | - | 0 W/m² | - |
| 1777890118 | 15.56° C | 47% | 1017.7 hPa | 0 mm | - | 0 W/m² | - |
| 1777889815 | 15.56° C | 48% | 1017.6 hPa | 0 mm | - | 0 W/m² | - |
| 1777889512 | 16.11° C | 47% | 1017.4 hPa | 0 mm | - | 0 W/m² | - |
| 1777889210 | 16.11° C | 46% | 1017.2 hPa | 0 mm | - | 0 W/m² | - |
| 1777888908 | 15° C | 49% | 1017 hPa | 0 mm | - | 0 W/m² | - |
| 1777888604 | 13.89° C | 51% | 1017.1 hPa | 0 mm | - | 0 W/m² | - |
| 1777888299 | 13.89° C | 51% | 1016.9 hPa | 0 mm | - | 0 W/m² | - |
| 1777887996 | 14.44° C | 50% | 1017.2 hPa | 0 mm | - | 0 W/m² | - |
| 1777887694 | 15° C | 49% | 1017.1 hPa | 0 mm | - | 0 W/m² | - |
| 1777887390 | 15° C | 48% | 1017.1 hPa | 0 mm | - | 0 W/m² | - |
| 1777887086 | 15° C | 48% | 1017.1 hPa | 0 mm | - | 0 W/m² | - |
| 1777886782 | 15° C | 48% | 1017 hPa | 0 mm | - | 0 W/m² | - |
| 1777886478 | 15° C | 47% | 1017.1 hPa | 0 mm | - | 0 W/m² | - |
| 1777886176 | 14.44° C | 48% | 1016.9 hPa | 0 mm | - | 0 W/m² | - |
| 1777885874 | 15° C | 48% | 1017.2 hPa | 0 mm | - | 0 W/m² | - |
| 1777885573 | 15° C | 46% | 1017.4 hPa | 0 mm | - | 0 W/m² | - |
| 1777885270 | 15.56° C | 47% | 1017.4 hPa | 0 mm | - | 0 W/m² | - |
| 1777884968 | 15.56° C | 44% | 1017.4 hPa | 0 mm | - | 0 W/m² | - |
* Rain latest hour (hover to see other rain measurements)
** Current wind speed in m/s (hover to see current wind gust speed)